• Em Portugal
  • Lista de países
  • Para 7 dias
  • Temperatura da água
  • Mapas de satélite
  • Mapa do tempo
  • Widgets de tempo
  • user-avatar
    Iniciar Sessão

    Previsão horária em Bengazi

    Hoje, 21 Maio, Segunda-feira

    Tempo Temperatura Precipitação Vento Pressão Humidade
    00:00 +30°C° 0 mm 3 m/s 755 mmHg 38%
    01:00 +30°C° 0 mm 3 m/s 755 mmHg 38%
    02:00 +30°C° 0 mm 3 m/s 755 mmHg 37%
    03:00 +29°C° 0 mm 2 m/s 755 mmHg 36%
    04:00 +29°C° 0 mm 2 m/s 755 mmHg 35%
    05:00 +30°C° 0 mm 3 m/s 755 mmHg 35%
    06:00 +30°C° 0 mm 3 m/s 755 mmHg 34%
    07:00 +32°C° 0 mm 4 m/s 756 mmHg 35%
    08:00 +32°C° 0 mm 4 m/s 756 mmHg 35%
    09:00 +33°C° 0 mm 5 m/s 756 mmHg 34%
    10:00 +33°C° 0 mm 5 m/s 757 mmHg 34%
    11:00 +34°C° 0 mm 5 m/s 757 mmHg 34%
    12:00 +34°C° 0 mm 4 m/s 757 mmHg 34%
    13:00 +34°C° 0 mm 4 m/s 757 mmHg 34%
    14:00 +34°C° 0 mm 4 m/s 757 mmHg 35%
    15:00 +33°C° 0 mm 4 m/s 757 mmHg 36%
    16:00 +33°C° 0 mm 4 m/s 757 mmHg 37%
    17:00 +33°C° 0 mm 3 m/s 757 mmHg 37%
    18:00 +31°C° 0 mm 2 m/s 757 mmHg 38%
    19:00 +31°C° 0 mm 1 m/s 757 mmHg 38%
    20:00 +31°C° 0 mm 1 m/s 758 mmHg 37%
    21:00 +31°C° 0 mm 2 m/s 758 mmHg 36%
    22:00 +31°C° 0 mm 3 m/s 758 mmHg 36%
    23:00 +30°C° 0 mm 3 m/s 758 mmHg 37%

    Amanhã, 22 Maio, Terça-feira

    Tempo Temperatura Precipitação Vento Pressão Humidade
    00:00 +30°C° 0 mm 3 m/s 758 mmHg 38%
    01:00 +30°C° 0 mm 3 m/s 758 mmHg 38%
    02:00 +30°C° 0 mm 3 m/s 758 mmHg 38%
    03:00 +30°C° 0 mm 2 m/s 758 mmHg 38%
    04:00 +29°C° 0 mm 1 m/s 758 mmHg 38%
    05:00 +30°C° 0 mm 2 m/s 759 mmHg 35%
    06:00 +31°C° 0 mm 2 m/s 759 mmHg 32%
    07:00 +32°C° 0 mm 2 m/s 759 mmHg 29%
    08:00 +34°C° 0 mm 3 m/s 760 mmHg 29%
    09:00 +34°C° 0 mm 3 m/s 760 mmHg 29%
    10:00 +35°C° 0 mm 3 m/s 760 mmHg 28%
    11:00 +35°C° 0 mm 3 m/s 760 mmHg 30%
    12:00 +34°C° 0 mm 4 m/s 760 mmHg 31%
    13:00 +34°C° 0 mm 4 m/s 760 mmHg 32%
    14:00 +34°C° 0 mm 3 m/s 760 mmHg 34%
    15:00 +34°C° 0 mm 2 m/s 760 mmHg 35%
    16:00 +32°C° 0 mm 2 m/s 759 mmHg 36%
    17:00 +32°C° 0 mm 2 m/s 760 mmHg 35%
    18:00 +32°C° 0 mm 2 m/s 760 mmHg 35%
    19:00 +32°C° 0 mm 1 m/s 760 mmHg 34%
    20:00 +32°C° 0 mm 2 m/s 760 mmHg 35%
    21:00 +31°C° 0 mm 2 m/s 761 mmHg 37%
    22:00 +31°C° 0 mm 3 m/s 761 mmHg 38%
    23:00 +31°C° 0 mm 3 m/s 761 mmHg 37%

    Depois de amanhã, 23 Maio, Quarta-feira

    Tempo Temperatura Precipitação Vento Pressão Humidade
    00:00 +32°C° 0 mm 4 m/s 760 mmHg 37%
    01:00 +32°C° 0 mm 5 m/s 760 mmHg 36%
    02:00 +32°C° 0 mm 5 m/s 760 mmHg 36%
    03:00 +32°C° 0 mm 5 m/s 760 mmHg 35%
    04:00 +32°C° 0 mm 5 m/s 760 mmHg 34%
    05:00 +32°C° 0 mm 5 m/s 760 mmHg 34%
    06:00 +32°C° 0 mm 4 m/s 760 mmHg 34%
    07:00 +33°C° 0 mm 4 m/s 761 mmHg 34%
    08:00 +33°C° 0,1 mm 4 m/s 761 mmHg 32%
    09:00 +34°C° 0,1 mm 4 m/s 761 mmHg 31%
    10:00 +35°C° 0,1 mm 5 m/s 761 mmHg 29%
    11:00 +36°C° 0 mm 5 m/s 760 mmHg 27%
    12:00 +37°C° 0 mm 5 m/s 760 mmHg 25%
    13:00 +39°C° 0 mm 5 m/s 760 mmHg 23%
    14:00 +39°C° 0 mm 5 m/s 759 mmHg 23%
    15:00 +39°C° 0 mm 6 m/s 759 mmHg 24%
    16:00 +38°C° 0 mm 6 m/s 759 mmHg 24%
    17:00 +35°C° 0 mm 5 m/s 759 mmHg 31%
    18:00 +33°C° 0 mm 4 m/s 759 mmHg 38%
    19:00 +30°C° 0 mm 4 m/s 759 mmHg 44%
    20:00 +29°C° 0 mm 3 m/s 759 mmHg 47%
    21:00 +29°C° 0 mm 3 m/s 760 mmHg 51%
    22:00 +28°C° 0 mm 3 m/s 760 mmHg 54%
    23:00 +28°C° 0 mm 4 m/s 760 mmHg 56%

    24 Maio, Quinta-feira

    Tempo Temperatura Precipitação Vento Pressão Humidade
    00:00 +27°C° 0 mm 4 m/s 759 mmHg 58%
    01:00 +27°C° 0 mm 4 m/s 759 mmHg 61%
    02:00 +26°C° 0 mm 5 m/s 759 mmHg 62%
    03:00 +26°C° 0 mm 6 m/s 759 mmHg 64%
    04:00 +26°C° 0 mm 7 m/s 759 mmHg 65%
    05:00 +26°C° 0,1 mm 6 m/s 760 mmHg 65%
    06:00 +26°C° 0,1 mm 6 m/s 760 mmHg 66%
    07:00 +26°C° 0,1 mm 6 m/s 760 mmHg 66%
    08:00 +26°C° 0,1 mm 6 m/s 761 mmHg 64%
    09:00 +27°C° 0,1 mm 5 m/s 761 mmHg 62%
    10:00 +28°C° 0,1 mm 5 m/s 761 mmHg 60%
    11:00 +28°C° 0 mm 5 m/s 761 mmHg 58%
    12:00 +28°C° 0 mm 5 m/s 761 mmHg 56%
    13:00 +28°C° 0 mm 6 m/s 760 mmHg 54%
    14:00 +28°C° 0 mm 6 m/s 760 mmHg 56%
    15:00 +27°C° 0 mm 7 m/s 760 mmHg 58%
    16:00 +27°C° 0 mm 7 m/s 759 mmHg 60%
    17:00 +26°C° 0 mm 7 m/s 759 mmHg 64%
    18:00 +24°C° 0 mm 6 m/s 759 mmHg 69%
    19:00 +24°C° 0 mm 6 m/s 760 mmHg 74%
    20:00 +23°C° 0 mm 6 m/s 760 mmHg 74%
    21:00 +23°C° 0 mm 6 m/s 760 mmHg 74%
    22:00 +23°C° 0 mm 5 m/s 760 mmHg 74%
    23:00 +23°C° 0 mm 5 m/s 760 mmHg 75%

    25 Maio, Sexta-feira

    Tempo Temperatura Precipitação Vento Pressão Humidade
    00:00 +22°C° 0 mm 5 m/s 760 mmHg 77%
    01:00 +22°C° 0 mm 5 m/s 760 mmHg 78%
    02:00 +22°C° 0 mm 5 m/s 759 mmHg 79%
    03:00 +22°C° 0 mm 5 m/s 759 mmHg 81%
    04:00 +21°C° 0 mm 5 m/s 759 mmHg 83%
    05:00 +22°C° 0 mm 5 m/s 759 mmHg 80%
    06:00 +22°C° 0 mm 6 m/s 760 mmHg 77%
    07:00 +22°C° 0 mm 6 m/s 760 mmHg 75%
    08:00 +23°C° 0 mm 6 m/s 760 mmHg 70%
    09:00 +24°C° 0 mm 6 m/s 760 mmHg 65%
    10:00 +26°C° 0 mm 6 m/s 760 mmHg 60%
    11:00 +26°C° 0 mm 6 m/s 760 mmHg 59%
    12:00 +27°C° 0 mm 7 m/s 760 mmHg 58%
    13:00 +27°C° 0 mm 7 m/s 760 mmHg 57%
    14:00 +27°C° 0 mm 7 m/s 759 mmHg 58%
    15:00 +26°C° 0 mm 7 m/s 759 mmHg 59%
    16:00 +26°C° 0 mm 8 m/s 759 mmHg 60%
    17:00 +26°C° 0 mm 7 m/s 759 mmHg 64%
    18:00 +24°C° 0 mm 7 m/s 759 mmHg 67%
    19:00 +23°C° 0 mm 6 m/s 760 mmHg 71%
    20:00 +23°C° 0 mm 6 m/s 760 mmHg 73%
    21:00 +23°C° 0 mm 6 m/s 760 mmHg 75%
    22:00 +23°C° 0 mm 5 m/s 760 mmHg 77%
    23:00 +22°C° 0 mm 5 m/s 760 mmHg 79%

    26 Maio, Sábado

    Tempo Temperatura Precipitação Vento Pressão Humidade
    00:00 +22°C° 0 mm 5 m/s 760 mmHg 80%
    01:00 +22°C° 0 mm 5 m/s 759 mmHg 82%
    02:00 +22°C° 0 mm 5 m/s 759 mmHg 83%
    03:00 +22°C° 0 mm 5 m/s 759 mmHg 84%
    04:00 +21°C° 0 mm 5 m/s 759 mmHg 84%
    05:00 +22°C° 0 mm 5 m/s 759 mmHg 82%
    06:00 +22°C° 0 mm 5 m/s 760 mmHg 79%
    07:00 +22°C° 0 mm 5 m/s 760 mmHg 76%
    08:00 +23°C° 0 mm 5 m/s 760 mmHg 71%
    09:00 +25°C° 0 mm 5 m/s 760 mmHg 66%
    10:00 +26°C° 0 mm 5 m/s 760 mmHg 61%
    11:00 +27°C° 0 mm 6 m/s 760 mmHg 60%
    12:00 +27°C° 0 mm 6 m/s 760 mmHg 58%
    13:00 +28°C° 0 mm 6 m/s 760 mmHg 57%
    14:00 +27°C° 0 mm 6 m/s 760 mmHg 58%
    15:00 +27°C° 0 mm 6 m/s 760 mmHg 60%
    16:00 +26°C° 0 mm 7 m/s 760 mmHg 61%
    17:00 +26°C° 0 mm 7 m/s 760 mmHg 64%
    18:00 +24°C° 0 mm 6 m/s 760 mmHg 68%
    19:00 +24°C° 0 mm 6 m/s 760 mmHg 71%
    20:00 +23°C° 0 mm 6 m/s 760 mmHg 74%
    21:00 +23°C° 0 mm 5 m/s 760 mmHg 77%
    22:00 +23°C° 0 mm 5 m/s 761 mmHg 79%
    23:00 +23°C° 0 mm 5 m/s 760 mmHg 80%
    Mostrar mais